{"data":{"norad_id":66658,"epoch":"2026-05-25T02:09:47.160288Z","epoch_age_seconds":60533,"freshness":"FRESH","line1":"1 66658U 25274J   26145.09012917  .00003590  00000+0  34042-3 0  9990","line2":"2 66658  97.7476  74.8261 0014526  92.6288 267.6595 14.94116025 26780","mean_motion":14.94116025,"eccentricity":0.0014526,"inclination_deg":97.7476,"raan_deg":74.8261,"arg_perigee_deg":92.6288,"mean_anomaly_deg":267.6595,"bstar":0.00034042,"rev_number":2678,"period_min":96.378057386808,"perigee_km":575.00305523978,"apogee_km":595.23270331506,"semimajor_km":6963.2548792774,"source":"CELESTRAK","updated_at":"2026-05-25T13:38:06.381907Z"}}